Location: Newark
(49.8969°N, 3.3422°E)
Time: 02:37:02
(UTC+00:00)

A-11 Canister half - Pass Details

Date: 28 January 2020
Orbit: 1517 x 1683 km, 47.2° (Epoch: 26 February)

Event Time Altitude Azimuth Distance (km) Brightness Sun altitude
Rises 03:45:25 0° 284° (WNW) 4,682 - -35.3°
Reaches altitude 10° 03:48:32 10° 280° (W) 3,689 - -34.8°
Maximum altitude 03:57:26 55° 206° (SSW) 1,782 - -33.4°
Exits shadow 03:58:06 54° 192° (SSW) 1,799 9.1 -33.3°
Drops below altitude 10° 04:06:22 10° 133° (SE) 3,698 11.4 -32.0°
Sets 04:09:30 0° 129° (SE) 4,694 12.1 -31.5°
